"startDT [UTC]","vpos","CH4 [ppm]","stdev(CH4) [ppm]","CO2 [ppm]","stdev(CO2) [ppm]","H2O_reported [%]","stdev(H2O_reported)","CavityPressure [torr]","CavityTemp [C]","OutletValve","CH4_dry [ppm]","CO2_dry [ppm]","DasTemp [C]","EtalonTemp [C]","WarmBoxTemp [C]","MPVPosition","T_ECpre [C]","T_EC1 [C]","T_EC2 [C]","p_inlet [hPa]","p_in [hPa]","p_out [hPa]","T_inlet [C]","RH_inlet [%]","dwpt_inlet [C]","T_vent [C]","RH_vent [%]","dwpt_vent [C]","flow_vent [l min-1]","flow_inlet [l min-1]","dwpt_sample [C]","T_room [C]"
2015-09-02 00:00:00,0.0,1.93130,0.00034,386.409,0.034,0.6961,0.0015,139.997,44.999,31140.98072,1.94481,389.714,34.566,45.067,44.999,0.00,0.10,-272.74,-272.80,-11,497,-942,21.7,20.9,-1.7,21.9,21.1,-1.4,5.73,1.97,0.6,27.0
2015-09-02 00:01:00,0.0,1.93123,0.00036,386.375,0.037,0.6963,0.0019,139.998,44.999,31138.85556,1.94477,389.684,34.523,45.067,44.999,0.00,0.10,-272.75,-272.81,-11,497,-942,21.7,20.9,-1.7,21.9,21.1,-1.4,5.73,1.96,0.6,27.0
2015-09-02 00:02:00,0.0,1.93128,0.00054,386.284,0.062,0.7019,0.0039,139.997,44.999,31136.33895,1.94487,389.616,34.499,45.067,44.999,0.00,0.10,-272.75,-272.80,-11,497,-942,21.7,21.1,-1.5,21.8,21.3,-1.3,5.73,1.96,0.6,27.0
2015-09-02 00:03:00,0.0,1.93151,0.00038,386.231,0.044,0.7069,0.0024,139.999,44.999,31134.58731,1.94525,389.589,34.499,45.068,45.000,0.00,0.10,-272.74,-272.80,-11,497,-942,21.7,21.3,-1.4,21.8,21.5,-1.2,5.73,1.95,0.6,27.0
2015-09-02 00:04:00,0.0,1.93181,0.00059,386.204,0.033,0.7080,0.0023,139.999,45.000,31133.04985,1.94562,389.566,34.500,45.068,45.000,0.00,0.10,-272.75,-272.81,-11,497,-942,21.6,21.3,-1.5,21.8,21.5,-1.2,5.73,1.97,0.6,27.0
2015-09-02 00:05:00,0.0,1.93146,0.00040,386.165,0.036,0.7097,0.0019,140.000,45.000,31134.18555,1.94523,389.538,34.526,45.068,45.000,0.00,0.10,-272.75,-272.81,-11,496,-942,21.6,21.4,-1.4,21.8,21.6,-1.1,5.73,1.99,0.6,27.0
2015-09-02 00:06:00,0.0,1.93143,0.00077,386.087,0.045,0.7122,0.0032,140.001,45.000,31135.95964,1.94533,389.468,34.563,45.069,45.001,0.00,0.10,-272.73,-272.80,-11,496,-943,21.6,21.5,-1.4,21.8,21.7,-1.1,5.73,2.01,0.6,27.0
2015-09-02 00:07:00,0.0,1.93013,0.00050,386.150,0.044,0.7053,0.0036,140.003,45.000,31136.87459,1.94378,389.498,34.576,45.069,45.000,0.00,0.10,-272.74,-272.81,-11,496,-943,21.6,21.3,-1.5,21.7,21.6,-1.2,5.73,2.00,0.5,27.0
2015-09-02 00:08:00,0.0,1.93024,0.00065,385.947,0.078,0.7197,0.0054,139.999,45.000,31136.45971,1.94423,389.365,34.562,45.068,45.000,0.00,0.10,-272.75,-272.81,-11,497,-942,21.6,21.7,-1.2,21.7,21.8,-1.0,5.73,1.99,0.6,27.0
2015-09-02 00:09:00,0.0,1.93044,0.00060,385.965,0.067,0.7186,0.0047,139.999,45.000,31134.50012,1.94439,389.376,34.514,45.068,45.000,0.00,0.10,-272.74,-272.80,-11,497,-942,21.6,21.7,-1.2,21.8,22.0,-0.9,5.73,1.98,0.5,27.0
2015-09-02 00:10:00,0.0,1.92948,0.00133,385.972,0.045,0.7161,0.0041,139.998,45.000,31131.87757,1.94347,389.372,34.497,45.068,44.999,0.00,0.10,-272.74,-272.81,-11,496,-942,21.7,21.6,-1.3,21.8,21.9,-1.0,5.73,1.97,0.6,26.9
2015-09-02 00:11:00,0.0,1.92756,0.00049,385.953,0.055,0.7169,0.0037,139.999,44.999,31129.92502,1.94147,389.357,34.448,45.067,44.999,0.00,0.10,-272.74,-272.81,-11,497,-942,21.7,21.6,-1.2,21.8,21.8,-1.0,5.73,1.98,0.6,26.9
2015-09-02 00:12:00,0.0,1.92702,0.00042,385.969,0.059,0.7184,0.0031,139.997,44.999,31128.05201,1.94099,389.378,34.428,45.067,44.999,0.00,0.10,-272.75,-272.80,-11,496,-942,21.7,21.6,-1.2,21.8,21.9,-0.9,5.73,2.00,0.5,27.0
2015-09-02 00:13:00,0.0,1.92744,0.00047,385.824,0.089,0.7292,0.0065,139.999,45.000,31129.09021,1.94154,389.288,34.436,45.068,44.999,0.00,0.10,-272.74,-272.80,-11,496,-942,21.6,22.0,-1.0,21.8,22.1,-0.8,5.73,2.02,0.6,26.9
2015-09-02 00:14:00,0.0,1.92789,0.00060,385.743,0.098,0.7371,0.0053,139.998,45.000,31128.41383,1.94222,389.241,34.495,45.068,45.000,0.00,0.10,-272.75,-272.80,-11,496,-942,21.6,22.2,-0.9,21.8,22.5,-0.6,5.73,2.04,0.5,26.9
2015-09-02 00:15:00,0.0,1.92801,0.00047,385.863,0.056,0.7332,0.0053,140.000,45.000,31131.28179,1.94219,389.343,34.573,45.068,45.000,0.00,0.10,-272.75,-272.81,-11,496,-942,21.6,22.1,-0.9,21.8,22.3,-0.7,5.73,2.03,0.5,27.0
2015-09-02 00:16:00,0.0,1.92844,0.00046,385.934,0.046,0.7333,0.0039,139.998,45.001,31133.20414,1.94269,389.416,34.638,45.068,45.000,0.00,0.10,-272.74,-272.80,-11,496,-943,21.6,22.1,-1.0,21.8,22.4,-0.7,5.73,2.00,0.5,27.0
2015-09-02 00:17:00,0.0,1.92900,0.00066,385.911,0.053,0.7375,0.0036,139.998,45.001,31135.84039,1.94333,389.413,34.704,45.069,45.001,0.00,0.10,-272.74,-272.81,-11,496,-943,21.6,22.3,-0.9,21.7,22.5,-0.6,5.73,1.95,0.6,27.0
2015-09-02 00:18:00,0.0,1.92907,0.00032,385.915,0.047,0.7437,0.0055,139.996,45.001,31137.63931,1.94348,389.447,34.748,45.068,45.000,0.00,0.10,-272.74,-272.81,-11,496,-943,21.6,22.5,-0.8,21.7,22.7,-0.5,5.73,1.93,0.6,26.9
2015-09-02 00:19:00,0.0,1.92943,0.00053,385.836,0.093,0.7535,0.0091,139.996,45.001,31139.25042,1.94409,389.417,34.747,45.068,45.000,0.00,0.10,-272.74,-272.80,-11,496,-943,21.6,22.8,-0.5,21.7,22.9,-0.4,5.73,1.94,0.5,26.9
2015-09-02 00:20:00,0.0,1.92928,0.00036,385.879,0.059,0.7559,0.0025,139.997,45.000,31139.87504,1.94399,389.470,34.701,45.068,44.999,0.00,0.10,-272.74,-272.80,-11,496,-943,21.6,22.9,-0.5,21.7,23.1,-0.2,5.73,1.96,0.5,27.0
2015-09-02 00:21:00,0.0,1.92956,0.00060,385.921,0.043,0.7553,0.0047,139.998,45.000,31138.72786,1.94419,389.511,34.646,45.068,44.999,0.00,0.10,-272.75,-272.81,-11,496,-943,21.6,22.9,-0.5,21.7,23.1,-0.3,5.73,1.97,0.5,27.0
2015-09-02 00:22:00,0.0,1.93014,0.00038,385.974,0.092,0.7572,0.0066,139.998,44.999,31133.48222,1.94490,389.573,34.567,45.067,44.999,0.00,0.10,-272.74,-272.81,-11,496,-942,21.6,22.9,-0.5,21.7,23.2,-0.2,5.73,1.98,0.5,26.9
2015-09-02 00:23:00,0.0,1.92988,0.00039,386.069,0.035,0.7486,0.0033,139.998,44.999,31132.75086,1.94442,389.626,34.505,45.067,44.999,0.00,0.10,-272.73,-272.80,-11,496,-942,21.6,22.6,-0.7,21.8,22.9,-0.4,5.73,1.98,0.5,26.9
2015-09-02 00:24:00,0.0,1.93000,0.00047,385.990,0.048,0.7556,0.0042,140.000,44.999,31130.79786,1.94467,389.583,34.450,45.068,45.000,0.00,0.10,-272.74,-272.81,-11,496,-942,21.6,22.8,-0.5,21.7,23.0,-0.3,5.73,1.97,0.5,26.9
2015-09-02 00:25:00,0.0,1.93055,0.00040,385.991,0.030,0.7586,0.0035,139.999,44.999,31126.60109,1.94532,389.597,34.404,45.068,45.000,0.00,0.10,-272.75,-272.81,-11,496,-942,21.6,22.9,-0.5,21.7,23.1,-0.2,5.73,1.96,0.5,27.0
2015-09-02 00:26:00,0.0,1.93044,0.00051,386.039,0.059,0.7532,0.0042,140.000,44.999,31127.26597,1.94508,389.620,34.404,45.068,45.001,0.00,0.10,-272.74,-272.80,-11,496,-942,21.6,22.8,-0.6,21.7,23.0,-0.3,5.73,1.94,0.5,26.9
2015-09-02 00:27:00,0.0,1.93057,0.00048,385.936,0.046,0.7632,0.0034,139.996,45.000,31126.08964,1.94544,389.565,34.437,45.069,45.001,0.00,0.10,-272.75,-272.80,-11,496,-942,21.6,23.1,-0.4,21.7,23.3,-0.2,5.73,1.94,0.5,26.9
2015-09-02 00:28:00,0.0,1.93025,0.00049,385.955,0.070,0.7597,0.0041,139.998,45.000,31126.15707,1.94504,389.566,34.487,45.069,45.001,0.00,0.10,-272.75,-272.80,-11,496,-942,21.6,23.0,-0.5,21.7,23.3,-0.2,5.73,1.96,0.5,26.9
2015-09-02 00:29:00,0.0,1.93006,0.00050,385.938,0.064,0.7590,0.0041,139.999,45.000,31128.70563,1.94478,389.546,34.500,45.069,45.001,0.00,0.10,-272.74,-272.81,-11,496,-943,21.5,23.0,-0.5,21.7,23.2,-0.2,5.73,1.97,0.5,26.9
2015-09-02 00:30:00,0.0,1.93099,0.00040,385.853,0.053,0.7698,0.0032,139.998,45.000,31126.54439,1.94595,389.511,34.487,45.069,45.000,0.00,0.10,-272.74,-272.80,-11,496,-942,21.5,23.3,-0.3,21.7,23.5,-0.0,5.73,1.98,0.5,26.9
2015-09-02 00:31:00,0.0,1.93081,0.00040,385.938,0.057,0.7640,0.0042,140.000,45.000,31126.40531,1.94570,389.570,34.447,45.068,45.000,0.00,0.10,-272.75,-272.81,-11,496,-942,21.6,23.1,-0.4,21.7,23.4,-0.1,5.73,1.97,0.5,26.9
2015-09-02 00:32:00,0.0,1.93076,0.00046,386.006,0.040,0.7592,0.0030,139.996,45.000,31124.84625,1.94555,389.614,34.433,45.068,45.000,0.00,0.10,-272.74,-272.80,-11,496,-942,21.5,23.0,-0.5,21.7,23.3,-0.2,5.73,1.98,0.5,26.9
2015-09-02 00:33:00,0.0,1.93133,0.00044,386.061,0.076,0.7551,0.0044,140.000,45.000,31122.39960,1.94599,389.653,34.375,45.068,44.999,0.00,0.10,-272.74,-272.80,-11,496,-942,21.6,22.8,-0.5,21.7,23.1,-0.3,5.73,1.98,0.5,26.8
2015-09-02 00:34:00,0.0,1.93163,0.00037,386.055,0.081,0.7567,0.0062,139.999,45.000,31123.68477,1.94637,389.653,34.367,45.068,45.000,0.00,0.10,-272.74,-272.80,-11,496,-942,21.5,22.9,-0.5,21.7,23.2,-0.3,5.73,2.00,0.5,26.9
2015-09-02 00:35:00,0.0,1.93206,0.00038,385.896,0.064,0.7680,0.0040,139.997,45.000,31122.73344,1.94700,389.548,34.369,45.068,45.000,0.00,0.10,-272.75,-272.81,-11,496,-942,21.6,23.2,-0.3,21.7,23.4,-0.1,5.73,2.01,0.5,26.8
2015-09-02 00:36:00,0.0,1.93149,0.00043,386.029,0.076,0.7586,0.0067,139.997,45.000,31124.92002,1.94628,389.634,34.397,45.068,45.000,0.00,0.10,-272.74,-272.80,-11,496,-942,21.6,23.0,-0.5,21.7,23.4,-0.2,5.73,2.05,0.5,26.8
2015-09-02 00:37:00,0.0,1.93149,0.00035,386.114,0.028,0.7511,0.0029,140.001,45.001,31127.72452,1.94611,389.685,34.457,45.069,45.001,0.00,0.10,-272.74,-272.81,-11,496,-942,21.6,22.7,-0.6,21.7,23.0,-0.3,5.73,2.08,0.5,26.9
2015-09-02 00:38:00,0.0,1.93181,0.00042,386.036,0.074,0.7556,0.0043,139.998,45.001,31131.89777,1.94647,389.631,34.533,45.069,45.002,0.00,0.10,-272.74,-272.81,-11,496,-943,21.6,22.9,-0.5,21.7,23.1,-0.3,5.73,2.03,0.5,26.9
2015-09-02 00:39:00,0.0,1.93193,0.00043,385.905,0.046,0.7653,0.0035,139.998,45.002,31135.52342,1.94686,389.543,34.615,45.070,45.002,0.00,0.10,-272.74,-272.81,-11,496,-943,21.6,23.1,-0.3,21.7,23.4,-0.1,5.73,1.94,0.5,27.0
2015-09-02 00:40:00,0.0,1.93187,0.00051,385.995,0.063,0.7591,0.0047,140.001,45.002,31139.96405,1.94668,389.604,34.698,45.070,45.002,0.00,0.10,-272.74,-272.80,-11,496,-943,21.6,23.0,-0.4,21.7,23.3,-0.2,5.73,1.89,0.5,27.0
2015-09-02 00:41:00,0.0,1.93144,0.00036,385.823,0.092,0.7696,0.0064,140.000,45.001,31144.81510,1.94638,389.484,34.749,45.069,45.001,0.00,0.10,-272.75,-272.80,-11,496,-943,21.6,23.3,-0.3,21.7,23.4,-0.0,5.73,1.91,0.5,27.0
2015-09-02 00:42:00,0.0,1.93112,0.00051,385.540,0.088,0.7914,0.0071,139.998,45.001,31148.78887,1.94656,389.303,34.752,45.069,45.000,0.00,0.10,-272.75,-272.81,-11,496,-943,21.6,23.9,0.1,21.7,24.1,0.3,5.73,1.95,0.5,27.0
2015-09-02 00:43:00,0.0,1.93134,0.00039,385.655,0.109,0.7817,0.0068,139.998,45.000,31147.49990,1.94658,389.372,34.745,45.068,44.999,0.00,0.10,-272.74,-272.80,-11,496,-943,21.6,23.7,-0.0,21.8,24.0,0.3,5.73,1.97,0.5,27.0
2015-09-02 00:44:00,0.0,1.93075,0.00064,385.708,0.150,0.7776,0.0111,139.998,45.000,31145.89410,1.94591,389.401,34.688,45.067,44.998,0.00,0.10,-272.74,-272.81,-11,496,-943,21.7,23.4,-0.1,21.8,23.8,0.2,5.73,1.98,0.5,27.0
2015-09-02 00:45:00,0.0,1.93153,0.00056,385.611,0.153,0.7839,0.0106,139.999,44.999,31140.71467,1.94680,389.338,34.602,45.067,44.998,0.00,0.10,-272.74,-272.80,-11,496,-942,21.7,23.6,-0.0,21.8,23.8,0.2,5.73,1.99,0.5,27.0
2015-09-02 00:46:00,0.0,1.93076,0.00051,385.756,0.051,0.7705,0.0025,139.998,44.999,31137.24949,1.94576,389.419,34.530,45.066,44.998,0.00,0.10,-272.74,-272.80,-11,497,-942,21.7,23.2,-0.2,21.8,23.6,0.1,5.73,1.99,0.5,27.0
2015-09-02 00:47:00,0.0,1.93053,0.00040,385.639,0.060,0.7774,0.0041,139.999,44.998,31135.44726,1.94568,389.334,34.490,45.067,44.999,0.00,0.10,-272.74,-272.80,-11,497,-942,21.7,23.4,-0.1,21.8,23.7,0.2,5.73,1.98,0.5,27.0
2015-09-02 00:48:00,0.0,1.93057,0.00048,385.568,0.062,0.7815,0.0044,139.998,44.999,31131.86349,1.94578,389.283,34.463,45.067,44.999,0.00,0.10,-272.74,-272.81,-11,497,-942,21.7,23.5,-0.0,21.8,23.8,0.2,5.73,1.97,0.5,27.0
2015-09-02 00:49:00,0.0,1.92997,0.00040,385.567,0.057,0.7806,0.0040,139.996,44.999,31128.21962,1.94516,389.279,34.490,45.068,45.000,0.00,0.10,-272.74,-272.80,-11,496,-942,21.7,23.5,-0.1,21.8,23.8,0.2,5.73,1.95,0.5,27.0
2015-09-02 00:50:00,0.0,1.92958,0.00080,385.504,0.075,0.7828,0.0056,140.002,45.000,31130.15180,1.94485,389.223,34.529,45.068,45.000,0.00,0.10,-272.74,-272.81,-11,496,-942,21.6,23.6,-0.0,21.8,23.9,0.3,5.73,1.96,0.5,26.9
2015-09-02 00:51:00,0.0,1.92930,0.00043,385.485,0.031,0.7827,0.0034,139.998,45.000,31132.12023,1.94452,389.206,34.588,45.069,45.001,0.00,0.10,-272.75,-272.81,-11,496,-943,21.6,23.6,-0.1,21.8,23.8,0.2,5.73,2.00,0.5,26.9
2015-09-02 00:52:00,0.0,1.92918,0.00034,385.479,0.084,0.7830,0.0066,139.999,45.001,31136.37933,1.94442,389.199,34.650,45.069,45.001,0.00,0.10,-272.75,-272.80,-11,496,-943,21.6,23.6,-0.0,21.8,23.9,0.3,5.73,2.05,0.5,27.0
2015-09-02 00:53:00,0.0,1.92911,0.00054,385.501,0.058,0.7831,0.0054,139.999,45.001,31139.81535,1.94438,389.222,34.720,45.069,45.001,0.00,0.10,-272.74,-272.80,-11,496,-943,21.6,23.6,-0.0,21.8,23.9,0.3,5.73,2.07,0.5,27.0
2015-09-02 00:54:00,0.0,1.92896,0.00036,385.634,0.076,0.7698,0.0080,140.002,45.001,31142.98321,1.94394,389.292,34.766,45.069,45.001,0.00,0.10,-272.75,-272.80,-11,496,-943,21.6,23.3,-0.3,21.8,23.6,0.1,5.73,2.03,0.5,27.0
2015-09-02 00:55:00,0.0,1.92918,0.00029,385.496,0.065,0.7807,0.0060,139.999,45.001,31144.72528,1.94435,389.207,34.765,45.069,45.000,0.00,0.10,-272.75,-272.81,-11,496,-943,21.6,23.5,-0.1,21.8,23.7,0.2,5.73,2.00,0.5,27.1
2015-09-02 00:56:00,0.0,1.92912,0.00045,385.475,0.060,0.7761,0.0055,139.999,45.001,31146.04144,1.94420,389.164,34.732,45.068,45.000,0.00,0.10,-272.74,-272.80,-11,496,-943,21.6,23.4,-0.1,21.8,23.7,0.2,5.73,1.98,0.5,27.0
2015-09-02 00:57:00,0.0,1.92938,0.00053,385.554,0.090,0.7706,0.0084,140.000,45.000,31142.75242,1.94437,389.213,34.672,45.067,44.999,0.00,0.10,-272.74,-272.80,-11,497,-943,21.7,23.2,-0.3,21.8,23.6,0.1,5.73,1.98,0.5,27.0
2015-09-02 00:58:00,0.0,1.92914,0.00042,385.608,0.044,0.7656,0.0061,140.000,44.999,31139.43884,1.94405,389.244,34.610,45.067,44.999,0.00,0.10,-272.74,-272.81,-11,497,-943,21.7,23.0,-0.3,21.8,23.4,0.0,5.73,1.97,0.5,27.0
2015-09-02 00:59:00,0.0,1.92933,0.00037,385.533,0.062,0.7717,0.0062,139.997,44.999,31136.24172,1.94432,389.200,34.566,45.067,44.999,0.00,0.10,-272.74,-272.80,-11,497,-942,21.7,23.2,-0.2,21.8,23.4,-0.0,5.73,1.97,0.5,27.0
2015-09-02 01:00:00,0.0,1.92966,0.00059,385.511,0.111,0.7772,0.0090,139.999,44.999,31135.10198,1.94477,389.201,34.532,45.067,44.999,0.00,0.10,-272.74,-272.80,-11,497,-942,21.7,23.3,-0.2,21.8,23.7,0.1,5.73,1.98,0.5,27.0
2015-09-02 01:01:00,0.0,1.92998,0.00054,385.744,0.065,0.7602,0.0061,139.998,44.999,31132.37742,1.94483,389.356,34.500,45.067,44.999,0.00,0.10,-272.75,-272.81,-11,497,-942,21.7,22.8,-0.4,21.8,23.3,-0.1,5.73,1.98,0.5,27.0
2015-09-02 01:02:00,0.0,1.92965,0.00033,385.727,0.033,0.7610,0.0035,140.001,44.999,31132.58585,1.94443,389.343,34.503,45.068,45.000,0.00,0.10,-272.74,-272.81,-11,497,-942,21.7,22.8,-0.5,21.8,23.2,-0.2,5.73,1.97,0.5,27.0
2015-09-02 01:03:00,0.0,1.93009,0.00047,385.654,0.039,0.7680,0.0047,140.000,45.000,31131.54020,1.94501,389.303,34.566,45.068,45.000,0.00,0.10,-272.74,-272.80,-11,496,-942,21.7,23.1,-0.3,21.8,23.3,-0.1,5.73,1.94,0.5,27.0
2015-09-02 01:04:00,0.0,1.92975,0.00040,385.699,0.052,0.7613,0.0065,139.999,45.001,31136.55319,1.94455,389.314,34.658,45.069,45.001,0.00,0.10,-272.74,-272.80,-11,496,-943,21.7,22.8,-0.4,21.8,23.2,-0.1,5.73,1.88,0.5,27.1
2015-09-02 01:05:00,0.0,1.92984,0.00039,385.709,0.050,0.7612,0.0044,139.999,45.001,31140.34410,1.94465,389.327,34.762,45.070,45.002,0.00,0.10,-272.75,-272.81,-11,496,-943,21.8,22.8,-0.4,21.9,23.1,-0.1,5.73,1.89,0.5,27.1
2015-09-02 01:06:00,0.0,1.93049,0.00045,385.763,0.105,0.7603,0.0092,139.999,45.002,31143.02918,1.94527,389.375,34.885,45.070,45.002,0.00,0.10,-272.75,-272.80,-12,496,-943,21.8,22.7,-0.4,21.9,23.1,-0.1,5.73,2.00,0.5,27.1
2015-09-02 01:07:00,0.0,1.93072,0.00032,385.825,0.036,0.7531,0.0036,140.001,45.002,31150.24793,1.94536,389.402,35.036,45.070,45.002,0.00,0.10,-272.74,-272.80,-12,496,-943,21.8,22.5,-0.6,21.9,22.8,-0.3,5.73,2.13,0.5,27.1
2015-09-02 01:08:00,0.0,1.93049,0.00028,385.839,0.042,0.7529,0.0030,140.000,45.003,31157.51373,1.94516,389.417,35.176,45.070,45.002,0.00,0.10,-272.75,-272.81,-12,497,-943,21.8,22.4,-0.6,21.9,22.8,-0.3,5.73,2.05,0.5,27.2
2015-09-02 01:09:00,0.0,1.93083,0.00046,385.760,0.054,0.7613,0.0049,139.999,45.003,31162.90750,1.94560,389.378,35.292,45.069,45.001,0.00,0.10,-272.75,-272.81,-11,496,-944,21.9,22.7,-0.4,21.9,23.0,-0.2,5.73,1.89,0.5,27.3
2015-09-02 01:10:00,0.0,1.93129,0.00038,385.648,0.061,0.7735,0.0063,140.000,45.002,31167.11597,1.94636,389.325,35.349,45.069,45.001,0.00,0.10,-272.74,-272.80,-11,496,-944,21.8,23.1,-0.2,22.0,23.3,0.1,5.73,1.87,0.5,27.3
2015-09-02 01:11:00,0.0,1.93112,0.00039,385.589,0.086,0.7796,0.0069,139.999,45.002,31169.59977,1.94630,389.292,35.375,45.068,45.000,0.00,0.10,-272.74,-272.81,-10,497,-942,21.8,23.2,-0.1,22.0,23.6,0.2,5.73,1.93,0.5,27.3
2015-09-02 01:12:00,0.0,1.93122,0.00051,385.713,0.030,0.7708,0.0022,140.000,45.001,31169.65379,1.94622,389.377,35.340,45.067,44.999,0.00,0.09,-272.75,-272.81,-11,499,-944,21.8,23.1,-0.2,22.0,23.4,0.1,5.73,1.96,0.5,27.2
2015-09-02 01:13:00,0.0,1.93119,0.00037,385.692,0.048,0.7741,0.0038,139.998,45.000,31168.06567,1.94627,389.371,35.274,45.067,44.999,0.00,0.10,-272.74,-272.80,-12,497,-944,21.9,23.1,-0.1,22.0,23.4,0.2,5.73,1.97,0.5,27.2
2015-09-02 01:14:00,0.0,1.93182,0.00043,385.666,0.074,0.7767,0.0053,139.998,44.999,31164.30160,1.94694,389.359,35.171,45.066,44.998,0.00,0.10,-272.74,-272.80,-12,497,-943,21.9,23.1,-0.1,22.0,23.4,0.2,5.73,1.97,0.5,27.3
2015-09-02 01:15:00,0.0,1.93157,0.00040,385.661,0.066,0.7787,0.0060,140.003,44.998,31162.93988,1.94674,389.362,35.056,45.066,44.998,0.00,0.10,-272.74,-272.81,-12,497,-943,21.9,23.1,-0.1,22.0,23.5,0.2,5.73,1.97,0.5,27.3
2015-09-02 01:16:00,0.0,1.93160,0.00048,385.583,0.058,0.7860,0.0045,139.999,44.998,31158.34202,1.94690,389.320,34.931,45.066,44.998,0.00,0.10,-272.74,-272.81,-12,497,-943,22.0,23.3,0.0,22.0,23.7,0.3,5.73,1.99,0.5,27.2
2015-09-02 01:17:00,0.0,1.93152,0.00046,385.575,0.045,0.7847,0.0035,139.999,44.998,31154.05365,1.94684,389.306,34.819,45.066,44.999,0.00,0.10,-272.73,-272.80,-11,497,-943,22.0,23.2,0.0,22.0,23.7,0.3,5.73,1.99,0.5,27.2
2015-09-02 01:18:00,0.0,1.93165,0.00048,385.407,0.077,0.7954,0.0060,139.997,44.998,31150.49518,1.94715,389.188,34.740,45.067,45.000,0.00,0.10,-272.74,-272.80,-11,497,-943,22.0,23.6,0.2,22.0,23.9,0.4,5.73,1.98,0.5,27.2
2015-09-02 01:19:00,0.0,1.93155,0.00035,385.471,0.099,0.7930,0.0058,139.998,44.998,31146.45962,1.94700,389.239,34.689,45.068,45.000,0.00,0.10,-272.75,-272.81,-11,497,-943,21.9,23.5,0.1,22.0,23.9,0.5,5.73,1.97,0.5,27.2
2015-09-02 01:20:00,0.0,1.93125,0.00032,385.476,0.057,0.7915,0.0038,139.998,44.998,31142.54034,1.94666,389.239,34.662,45.068,45.000,0.00,0.10,-272.74,-272.80,-11,497,-942,21.9,23.5,0.1,22.0,23.8,0.4,5.73,1.96,0.5,27.2
2015-09-02 01:21:00,0.0,1.93146,0.00042,385.395,0.064,0.7968,0.0060,140.002,44.999,31143.31453,1.94703,389.182,34.671,45.068,45.001,0.00,0.10,-272.74,-272.80,-11,497,-943,21.9,23.7,0.2,22.0,24.0,0.5,5.73,1.96,0.5,27.2
2015-09-02 01:22:00,0.0,1.93074,0.00057,385.545,0.065,0.7808,0.0051,139.998,45.000,31144.34203,1.94592,389.255,34.688,45.069,45.001,0.00,0.10,-272.75,-272.81,-12,497,-943,21.8,23.2,-0.1,22.0,23.7,0.3,5.73,1.99,0.5,27.1
2015-09-02 01:23:00,0.0,1.93128,0.00045,385.524,0.068,0.7841,0.0041,140.001,45.001,31145.99870,1.94653,389.252,34.734,45.069,45.001,0.00,0.10,-272.74,-272.80,-12,497,-943,21.8,23.4,-0.1,21.9,23.6,0.2,5.73,2.03,0.5,27.2
2015-09-02 01:24:00,0.0,1.93129,0.00046,385.501,0.069,0.7871,0.0051,140.000,45.001,31146.96689,1.94664,389.242,34.749,45.069,45.001,0.00,0.10,-272.74,-272.80,-12,497,-943,21.8,23.5,0.0,21.9,23.7,0.3,5.73,2.06,0.5,27.2
2015-09-02 01:25:00,0.0,1.93111,0.00047,385.459,0.087,0.7906,0.0055,140.001,45.001,31150.10888,1.94655,389.214,34.766,45.069,45.001,0.00,0.10,-272.74,-272.80,-12,497,-943,21.8,23.6,0.1,21.9,23.9,0.3,5.73,2.04,0.5,27.2
2015-09-02 01:26:00,0.0,1.93066,0.00039,385.595,0.054,0.7775,0.0053,140.001,45.001,31152.56429,1.94577,389.292,34.770,45.069,45.001,0.00,0.10,-272.75,-272.81,-12,497,-943,21.7,23.3,-0.2,21.9,23.6,0.1,5.73,2.01,0.5,27.2
2015-09-02 01:27:00,0.0,1.93099,0.00057,385.481,0.100,0.7849,0.0089,140.000,45.001,31152.79690,1.94629,389.210,34.748,45.069,45.000,0.00,0.10,-272.74,-272.80,-11,497,-943,21.7,23.5,-0.0,21.9,23.7,0.2,5.73,1.99,0.5,27.2
2015-09-02 01:28:00,0.0,1.93132,0.00048,385.419,0.075,0.7936,0.0070,140.001,45.000,31150.48398,1.94677,389.191,34.686,45.068,44.999,0.00,0.10,-272.74,-272.80,-11,497,-943,21.8,23.7,0.1,21.9,23.9,0.3,5.73,1.97,0.5,27.1
2015-09-02 01:29:00,0.0,1.93126,0.00054,385.529,0.059,0.7846,0.0054,140.000,44.999,31146.75489,1.94654,389.258,34.622,45.067,44.999,0.00,0.10,-272.75,-272.81,-11,497,-942,21.8,23.4,-0.0,21.9,23.8,0.3,5.73,1.97,0.5,27.2
2015-09-02 01:30:00,0.0,1.93080,0.00053,385.472,0.056,0.7881,0.0058,139.998,44.999,31145.02785,1.94616,389.219,34.567,45.067,44.999,0.00,0.10,-272.74,-272.81,-11,497,-942,21.8,23.6,0.1,21.9,23.8,0.3,5.73,1.97,0.5,27.2
2015-09-02 01:31:00,0.0,1.93091,0.00045,385.324,0.074,0.8036,0.0036,139.999,44.999,31142.56350,1.94654,389.141,34.547,45.067,44.999,0.00,0.10,-272.74,-272.80,-11,497,-942,21.8,24.0,0.3,21.9,24.2,0.5,5.73,1.97,0.5,27.1
2015-09-02 01:32:00,0.0,1.93085,0.00041,385.338,0.147,0.8025,0.0119,139.997,44.999,31138.48419,1.94651,389.156,34.493,45.067,44.999,0.00,0.10,-272.75,-272.81,-11,497,-942,21.7,24.0,0.3,21.9,24.2,0.5,5.73,1.98,0.5,27.1
2015-09-02 01:33:00,0.0,1.93085,0.00039,385.128,0.078,0.8204,0.0051,139.999,44.999,31136.37133,1.94684,389.027,34.451,45.067,44.999,0.00,0.10,-272.74,-272.80,-10,496,-942,21.7,24.6,0.6,21.9,24.8,0.8,5.73,1.98,0.5,27.1
2015-09-02 01:34:00,0.0,1.93078,0.00059,385.355,0.112,0.8032,0.0118,139.997,44.999,31133.23910,1.94645,389.173,34.447,45.068,45.000,0.00,0.10,-272.75,-272.80,-10,497,-941,21.7,24.1,0.3,21.9,24.5,0.7,5.73,1.97,0.5,27.0
2015-09-02 01:35:00,0.0,1.93060,0.00036,385.491,0.060,0.7882,0.0051,140.001,45.000,31134.68937,1.94596,389.238,34.481,45.068,45.000,0.00,0.10,-272.75,-272.81,-11,497,-942,21.7,23.6,-0.0,21.9,24.0,0.4,5.73,1.93,0.5,27.0
2015-09-02 01:36:00,0.0,1.93041,0.00056,385.334,0.049,0.8002,0.0050,140.002,45.000,31137.96667,1.94599,389.138,34.532,45.069,45.001,0.00,0.10,-272.74,-272.81,-12,497,-942,21.7,24.0,0.2,21.8,24.1,0.4,5.73,1.90,0.5,27.0
2015-09-02 01:37:00,0.0,1.93028,0.00028,385.306,0.047,0.8023,0.0039,140.002,45.001,31141.84339,1.94593,389.120,34.600,45.069,45.001,0.00,0.10,-272.74,-272.80,-12,497,-943,21.7,24.1,0.3,21.9,24.3,0.6,5.73,1.88,0.5,27.0
2015-09-02 01:38:00,0.0,1.93035,0.00046,385.260,0.085,0.8052,0.0060,139.999,45.001,31145.46232,1.94601,389.086,34.687,45.069,45.001,0.00,0.10,-272.74,-272.80,-12,497,-943,21.7,24.2,0.4,21.9,24.4,0.6,5.73,1.94,0.5,27.1
2015-09-02 01:39:00,0.0,1.93034,0.00045,385.308,0.088,0.8046,0.0076,140.002,45.002,31151.06177,1.94603,389.132,34.765,45.069,45.001,0.00,0.10,-272.75,-272.80,-12,496,-943,21.7,24.2,0.3,21.9,24.3,0.6,5.73,2.02,0.5,27.1
2015-09-02 01:40:00,0.0,1.93014,0.00059,385.201,0.117,0.8153,0.0100,140.000,45.001,31152.26594,1.94606,389.077,34.819,45.069,45.001,0.00,0.10,-272.74,-272.80,-12,496,-943,21.7,24.4,0.5,21.9,24.7,0.8,5.73,2.06,0.5,27.1
2015-09-02 01:41:00,0.0,1.92989,0.00035,385.373,0.047,0.7967,0.0053,140.000,45.001,31154.72713,1.94542,389.161,34.815,45.068,45.000,0.00,0.10,-272.74,-272.80,-11,496,-943,21.7,23.9,0.2,21.9,24.3,0.5,5.73,2.03,0.5,27.1
2015-09-02 01:42:00,0.0,1.93026,0.00037,385.169,0.110,0.8099,0.0079,139.999,45.001,31155.77695,1.94603,389.016,34.785,45.068,45.000,0.00,0.10,-272.75,-272.81,-11,497,-943,21.7,24.3,0.4,21.9,24.5,0.6,5.73,1.99,0.5,27.1
2015-09-02 01:43:00,0.0,1.92957,0.00029,385.471,0.050,0.7835,0.0058,139.998,45.000,31155.69780,1.94482,389.195,34.719,45.067,44.999,0.00,0.10,-272.74,-272.81,-11,497,-943,21.7,23.5,-0.0,21.9,24.0,0.4,5.73,1.97,0.5,27.1
2015-09-02 01:44:00,0.0,1.93038,0.00031,385.274,0.108,0.8031,0.0090,139.999,44.999,31151.29820,1.94599,389.091,34.656,45.067,44.999,0.00,0.10,-272.74,-272.81,-12,497,-944,21.7,24.0,0.3,21.9,24.2,0.5,5.73,1.96,0.5,27.1
2015-09-02 01:45:00,0.0,1.93048,0.00059,385.430,0.038,0.7898,0.0050,140.000,44.999,31147.80302,1.94583,389.185,34.588,45.067,44.999,0.00,0.10,-272.74,-272.80,-11,497,-942,21.8,23.6,0.1,21.9,24.0,0.4,5.73,1.96,0.5,27.1
2015-09-02 01:46:00,0.0,1.93000,0.00045,385.368,0.056,0.7926,0.0060,139.997,44.999,31143.15865,1.94546,389.134,34.520,45.067,44.999,0.00,0.10,-272.74,-272.81,-11,497,-944,21.8,23.7,0.1,21.9,24.0,0.4,5.73,1.96,0.5,27.1